CCM408 LFKF-LFMN

Flight info

Callsign CCM408
Flight time 0h 39m
Altitude 24000
Route AJO M622 LONSU
Aircraft A320/M-SDE3FGHIRWY/LB1

Departure

Time 2026-05-07 03:10
Airport Figari Sud-Corse Airport (LFKF)

Arrival

Time 2026-05-07 03:50
Airport Nice-Côte d'Azur Airport (LFMN)
Time Latitude Longitude Altitude Speed Heading
2026-05-07 02:53 41.49963 9.09795 67 ft 0 kts 139°
2026-05-07 03:01 41.49978 9.09779 59 ft 4 kts 140°
2026-05-07 03:01 41.49998 9.09755 61 ft 4 kts 127°
2026-05-07 03:02 41.50006 9.09731 65 ft 3 kts 54°
2026-05-07 03:02 41.50004 9.09728 61 ft 0 kts 47°
2026-05-07 03:05 41.50010 9.09736 60 ft 4 kts 47°
2026-05-07 03:05 41.50045 9.09785 66 ft 9 kts 46°
2026-05-07 03:06 41.50099 9.09805 69 ft 8 kts 342°
2026-05-07 03:06 41.50162 9.09737 66 ft 14 kts 317°
2026-05-07 03:06 41.50192 9.09656 63 ft 10 kts 260°
2026-05-07 03:06 41.50146 9.09579 63 ft 14 kts 227°
2026-05-07 03:07 41.50066 9.09464 61 ft 18 kts 227°
2026-05-07 03:07 41.49982 9.09343 57 ft 17 kts 227°
2026-05-07 03:07 41.49900 9.09223 60 ft 20 kts 227°
2026-05-07 03:07 41.49796 9.09075 51 ft 22 kts 227°
2026-05-07 03:08 41.49684 9.08914 53 ft 26 kts 227°
2026-05-07 03:08 41.49576 9.08758 51 ft 15 kts 228°
2026-05-07 03:08 41.49512 9.08695 49 ft 10 kts 197°
2026-05-07 03:08 41.49471 9.08652 48 ft 5 kts 269°
2026-05-07 03:09 41.49492 9.08634 48 ft 3 kts
2026-05-07 03:09 41.49498 9.08644 48 ft 0 kts 46°
2026-05-07 03:09 41.49501 9.08648 48 ft 8 kts 46°
2026-05-07 03:10 41.49733 9.08983 51 ft 86 kts 47°
2026-05-07 03:10 41.50285 9.09778 72 ft 145 kts 47°
2026-05-07 03:10 41.50985 9.10795 621 ft 148 kts 46°
2026-05-07 03:10 41.51693 9.11807 1281 ft 150 kts 45°
2026-05-07 03:11 41.52416 9.12840 1869 ft 159 kts 45°
2026-05-07 03:11 41.53231 9.13995 2201 ft 182 kts 44°
2026-05-07 03:11 41.54121 9.15347 2517 ft 207 kts 49°
2026-05-07 03:11 41.55039 9.16925 3085 ft 220 kts 51°
2026-05-07 03:12 41.55969 9.18578 3856 ft 225 kts 51°
2026-05-07 03:12 41.56919 9.20272 4638 ft 230 kts 51°
2026-05-07 03:12 41.57706 9.22159 5377 ft 238 kts 77°
2026-05-07 03:12 41.57638 9.24348 6122 ft 240 kts 113°
2026-05-07 03:13 41.56672 9.26118 6874 ft 237 kts 148°
2026-05-07 03:13 41.55168 9.26886 7612 ft 233 kts 181°
2026-05-07 03:13 41.53632 9.26478 8370 ft 229 kts 211°
2026-05-07 03:13 41.52475 9.25044 9150 ft 227 kts 242°
2026-05-07 03:14 41.52015 9.23045 9941 ft 227 kts 260°
2026-05-07 03:14 41.51766 9.20976 10700 ft 229 kts 260°
2026-05-07 03:14 41.51262 9.16760 12256 ft 232 kts 259°
2026-05-07 03:15 41.51001 9.14626 13043 ft 233 kts 258°
2026-05-07 03:15 41.50736 9.12482 13824 ft 235 kts 258°
2026-05-07 03:15 41.50469 9.10327 14513 ft 237 kts 258°
2026-05-07 03:15 41.50188 9.08153 15199 ft 238 kts 258°
2026-05-07 03:16 41.50257 9.05866 15487 ft 265 kts 286°
2026-05-07 03:16 41.51387 9.03763 15670 ft 300 kts 316°
2026-05-07 03:16 41.53237 9.02211 15828 ft 328 kts 326°
2026-05-07 03:16 41.55299 9.00677 15955 ft 350 kts 326°
2026-05-07 03:17 41.57462 8.99053 16353 ft 361 kts 326°
2026-05-07 03:17 41.59665 8.97385 16963 ft 366 kts 324°
2026-05-07 03:17 41.61768 8.95470 17602 ft 366 kts 318°
2026-05-07 03:17 41.63717 8.93348 18243 ft 367 kts 314°
2026-05-07 03:18 41.65628 8.91059 18827 ft 370 kts 312°
2026-05-07 03:18 41.67525 8.88714 19416 ft 373 kts 312°
2026-05-07 03:18 41.69442 8.86359 20018 ft 376 kts 312°
2026-05-07 03:18 41.71392 8.84013 20614 ft 379 kts 313°
2026-05-07 03:19 41.73381 8.81670 21208 ft 382 kts 313°
2026-05-07 03:19 41.75396 8.79334 21794 ft 385 kts 313°
2026-05-07 03:19 41.77541 8.77132 22358 ft 394 kts 321°
2026-05-07 03:19 41.79954 8.75327 22936 ft 400 kts 325°
2026-05-07 03:20 41.82413 8.73549 23488 ft 403 kts 325°
2026-05-07 03:20 41.84881 8.71752 23876 ft 405 kts 324°
2026-05-07 03:20 41.87357 8.69939 23990 ft 401 kts 325°
2026-05-07 03:20 41.89789 8.68159 24002 ft 395 kts 325°
2026-05-07 03:21 41.92195 8.66394 24003 ft 393 kts 325°
2026-05-07 03:21 41.94590 8.64629 24002 ft 392 kts 324°
2026-05-07 03:21 41.96979 8.62862 24000 ft 392 kts 324°
2026-05-07 03:21 41.99369 8.61096 23999 ft 392 kts 324°
2026-05-07 03:22 42.01757 8.59331 23998 ft 392 kts 324°
2026-05-07 03:22 42.04119 8.57584 23998 ft 392 kts 324°
2026-05-07 03:22 42.06509 8.55817 23997 ft 392 kts 324°
2026-05-07 03:22 42.08896 8.54052 24024 ft 392 kts 324°
2026-05-07 03:23 42.11286 8.52281 24017 ft 392 kts 324°
2026-05-07 03:23 42.13675 8.50511 24009 ft 392 kts 324°
2026-05-07 03:23 42.16066 8.48743 24001 ft 392 kts 324°
2026-05-07 03:23 42.18455 8.46973 23996 ft 392 kts 324°
2026-05-07 03:24 42.20843 8.45200 23992 ft 392 kts 324°
2026-05-07 03:24 42.23234 8.43421 23986 ft 392 kts 324°
2026-05-07 03:24 42.25620 8.41639 23985 ft 392 kts 324°
2026-05-07 03:24 42.28003 8.39858 23983 ft 392 kts 324°
2026-05-07 03:25 42.30390 8.38074 23982 ft 392 kts 324°
2026-05-07 03:25 42.32779 8.36283 23990 ft 392 kts 324°
2026-05-07 03:25 42.35165 8.34496 23992 ft 392 kts 324°
2026-05-07 03:25 42.37553 8.32708 24000 ft 392 kts 323°
2026-05-07 03:26 42.39939 8.30919 23995 ft 392 kts 323°
2026-05-07 03:26 42.42323 8.29128 23912 ft 389 kts 323°
2026-05-07 03:26 42.44660 8.27377 23680 ft 380 kts 323°
2026-05-07 03:26 42.46960 8.25653 23412 ft 374 kts 323°
2026-05-07 03:27 42.49194 8.23974 22963 ft 370 kts 323°
2026-05-07 03:27 42.51432 8.22290 22495 ft 366 kts 323°
2026-05-07 03:27 42.53652 8.20620 22029 ft 363 kts 323°
2026-05-07 03:27 42.55854 8.18959 21570 ft 361 kts 323°
2026-05-07 03:28 42.58037 8.17310 21114 ft 358 kts 324°
2026-05-07 03:28 42.60207 8.15666 20655 ft 356 kts 324°
2026-05-07 03:28 42.62368 8.14030 20195 ft 355 kts 324°
2026-05-07 03:28 42.64516 8.12402 19739 ft 353 kts 324°
2026-05-07 03:29 42.66655 8.10780 19286 ft 352 kts 324°
2026-05-07 03:29 42.68787 8.09163 18836 ft 350 kts 324°
2026-05-07 03:29 42.70914 8.07551 18391 ft 349 kts 324°
2026-05-07 03:29 42.73033 8.05945 17909 ft 348 kts 325°
2026-05-07 03:30 42.75148 8.04356 17459 ft 347 kts 328°
2026-05-07 03:30 42.77416 8.03199 17018 ft 351 kts 342°
2026-05-07 03:30 42.79844 8.02803 16687 ft 352 kts 356°
2026-05-07 03:30 42.82281 8.03077 16399 ft 350 kts
2026-05-07 03:31 42.84690 8.03442 16095 ft 347 kts
2026-05-07 03:31 42.87081 8.03804 15793 ft 344 kts
2026-05-07 03:31 42.89431 8.04155 15503 ft 342 kts
2026-05-07 03:31 42.91823 8.04511 15199 ft 340 kts
2026-05-07 03:32 42.94170 8.04860 14910 ft 338 kts
2026-05-07 03:32 42.96473 8.05203 14625 ft 336 kts
2026-05-07 03:32 42.98795 8.05552 14328 ft 335 kts
2026-05-07 03:32 43.01101 8.05903 14047 ft 333 kts
2026-05-07 03:33 43.03395 8.06252 13755 ft 331 kts
2026-05-07 03:33 43.05680 8.06599 13449 ft 329 kts
2026-05-07 03:33 43.07949 8.06940 13158 ft 327 kts
2026-05-07 03:33 43.10205 8.07279 12877 ft 325 kts
2026-05-07 03:34 43.12450 8.07613 12598 ft 323 kts
2026-05-07 03:34 43.14680 8.07947 12322 ft 322 kts
2026-05-07 03:34 43.16900 8.08283 12036 ft 320 kts
2026-05-07 03:34 43.19109 8.08616 11761 ft 318 kts
2026-05-07 03:35 43.21312 8.08947 11491 ft 317 kts
2026-05-07 03:35 43.23497 8.09276 11210 ft 315 kts
2026-05-07 03:35 43.25666 8.09589 10939 ft 312 kts 360°
2026-05-07 03:35 43.27792 8.09381 10675 ft 303 kts 342°
2026-05-07 03:36 43.29724 8.08354 10419 ft 296 kts 326°
2026-05-07 03:36 43.31309 8.06673 10161 ft 290 kts 311°
2026-05-07 03:36 43.32469 8.04494 9947 ft 276 kts 298°
2026-05-07 03:36 43.33415 8.02224 9644 ft 271 kts 298°
2026-05-07 03:37 43.34345 7.99985 9515 ft 269 kts 298°
2026-05-07 03:37 43.35272 7.97742 9323 ft 269 kts 298°
2026-05-07 03:37 43.36191 7.95514 9100 ft 267 kts 297°
2026-05-07 03:37 43.37102 7.93299 8831 ft 265 kts 297°
2026-05-07 03:38 43.38006 7.91100 8590 ft 264 kts 297°
2026-05-07 03:38 43.38909 7.88906 8341 ft 263 kts 297°
2026-05-07 03:38 43.39808 7.86716 8089 ft 262 kts 297°
2026-05-07 03:38 43.40704 7.84539 7846 ft 261 kts 297°
2026-05-07 03:39 43.41598 7.82368 7605 ft 260 kts 297°
2026-05-07 03:39 43.42487 7.80211 7381 ft 259 kts 297°
2026-05-07 03:39 43.43380 7.78049 7171 ft 259 kts 297°
2026-05-07 03:39 43.44267 7.75897 6937 ft 258 kts 297°
2026-05-07 03:40 43.45146 7.73750 6700 ft 257 kts 297°
2026-05-07 03:40 43.46020 7.71607 6459 ft 256 kts 297°
2026-05-07 03:40 43.46882 7.69497 6216 ft 256 kts 297°
2026-05-07 03:40 43.47754 7.67369 5970 ft 255 kts 297°
2026-05-07 03:41 43.48656 7.65274 5699 ft 255 kts 305°
2026-05-07 03:41 43.50089 7.63875 5404 ft 261 kts 340°
2026-05-07 03:41 43.51881 7.63917 5281 ft 259 kts 13°
2026-05-07 03:41 43.53500 7.64911 5185 ft 249 kts 20°
2026-05-07 03:42 43.55055 7.65794 5078 ft 235 kts 15°
2026-05-07 03:42 43.56590 7.66486 4972 ft 230 kts 10°
2026-05-07 03:42 43.58131 7.67049 4871 ft 228 kts 10°
2026-05-07 03:42 43.59684 7.67408 4731 ft 224 kts 354°
2026-05-07 03:43 43.61156 7.66874 4551 ft 218 kts 326°
2026-05-07 03:43 43.62249 7.65496 4375 ft 213 kts 301°
2026-05-07 03:43 43.63003 7.63741 4212 ft 213 kts 298°
2026-05-07 03:43 43.63752 7.61975 4042 ft 213 kts 298°
2026-05-07 03:44 43.64501 7.60214 3878 ft 212 kts 298°
2026-05-07 03:44 43.65245 7.58463 3725 ft 211 kts 300°
2026-05-07 03:44 43.65826 7.56614 3561 ft 211 kts 282°
2026-05-07 03:44 43.65928 7.54592 3397 ft 212 kts 271°
2026-05-07 03:45 43.65927 7.52556 3209 ft 213 kts 271°
2026-05-07 03:45 43.65931 7.50512 3031 ft 213 kts 271°
2026-05-07 03:45 43.65935 7.48459 2792 ft 214 kts 271°
2026-05-07 03:45 43.65940 7.46416 2506 ft 212 kts 271°
2026-05-07 03:46 43.65944 7.44392 2215 ft 209 kts 271°
2026-05-07 03:46 43.65947 7.42469 1942 ft 197 kts 271°
2026-05-07 03:46 43.65950 7.40616 1691 ft 189 kts 270°
2026-05-07 03:46 43.65955 7.38813 1446 ft 186 kts 270°
2026-05-07 03:47 43.65960 7.37041 1206 ft 184 kts 270°
2026-05-07 03:47 43.65967 7.35280 1000 ft 183 kts 271°
2026-05-07 03:47 43.66032 7.33537 870 ft 182 kts 277°
2026-05-07 03:47 43.66370 7.31841 1004 ft 184 kts 294°
2026-05-07 03:48 43.67005 7.30306 1035 ft 176 kts 302°
2026-05-07 03:48 43.67684 7.29054 1093 ft 153 kts 307°
2026-05-07 03:48 43.68275 7.27930 947 ft 138 kts 301°
2026-05-07 03:48 43.68512 7.27134 838 ft 135 kts 288°
2026-05-07 03:49 43.68658 7.25877 562 ft 132 kts 272°
2026-05-07 03:49 43.68405 7.24683 515 ft 135 kts 237°
2026-05-07 03:49 43.67689 7.23803 409 ft 138 kts 224°
2026-05-07 03:49 43.66994 7.22903 119 ft 136 kts 230°
2026-05-07 03:50 43.66335 7.21998 28 ft 126 kts 227°
2026-05-07 03:50 43.65811 7.21265 23 ft 83 kts 225°
2026-05-07 03:50 43.65572 7.20940 23 ft 28 kts 225°
2026-05-07 03:50 43.65485 7.20800 22 ft 15 kts 252°
2026-05-07 03:51 43.65512 7.20703 22 ft 7 kts 324°
2026-05-07 03:51 43.65558 7.20688 22 ft 6 kts 349°
2026-05-07 03:51 43.65596 7.20680 22 ft 5 kts 358°
2026-05-07 03:51 43.65640 7.20717 22 ft 11 kts 44°
2026-05-07 03:52 43.65692 7.20787 22 ft 10 kts 45°
2026-05-07 03:52 43.65737 7.20849 22 ft 9 kts 44°
2026-05-07 03:52 43.65799 7.20867 22 ft 11 kts 350°
2026-05-07 03:52 43.65878 7.20849 22 ft 13 kts 351°
2026-05-07 03:53 43.65974 7.20827 22 ft 15 kts 351°
2026-05-07 03:53 43.66027 7.20815 22 ft 6 kts 351°
2026-05-07 03:53 43.66066 7.20807 22 ft 5 kts 351°
2026-05-07 03:53 43.66098 7.20799 22 ft 4 kts 351°
2026-05-07 03:54 43.66125 7.20783 23 ft 4 kts 313°
2026-05-07 03:54 43.66126 7.20741 22 ft 6 kts 260°
2026-05-07 03:54 43.66120 7.20696 22 ft 2 kts 260°
2026-05-07 03:54 43.66119 7.20689 22 ft 0 kts 260°